[[{"header":{"parameterUnit":"m.s-1","parameterCategory":1,"la1":30.2991,"la2":30.254,"lo1":-89.0895,"lo2":-89.0444,"dy":0.0017,"dx":0.0017,"nx":28,"ny":28,"refTime":"2026-01-31T03:00:00:Z","depth":0,"parameterNumber":2,"parameterNumberName":"U-component_of_WINDS"},"data":[0,0,0,0,0,0,0,0,0,0,0,0,0,0,0,0,0,0,0,0,0,0,0,0,0,0,0,0,0,0,0,0,0,0,0,0,0,0,0,0,0,0,0,0,0,0,0,0,0,0,0,0,0,0,0,0,0,0,3.1555,3.1555,0,3.1628,3.1629,3.163,3.1628,3.1627,3.1626,3.1625,3.17,3.1703,3.1706,0,0,0,0,0,0,0,0,0,0,0,0,0,3.1414,3.1416,3.1554,3.1555,3.1556,3.1628,3.1629,3.163,3.1629,3.1627,3.1626,3.1625,3.17,3.1703,3.1706,0,0,0,0,0,0,0,0,0,0,0,0,0,3.148,3.1417,3.1554,3.1564,3.1566,3.1628,3.1629,3.163,3.1629,3.1627,3.1626,3.1624,3.1698,3.1703,3.1707,3.1764,0,0,3.172,3.1722,0,0,0,0,0,0,0,0,3.1476,3.1485,3.1562,3.1564,3.1566,3.1618,3.1607,3.1675,3.1629,3.1605,3.1625,3.1624,3.1674,3.168,3.1697,3.1767,3.1771,3.1721,3.1723,3.1725,3.1727,0,0,0,0,0,0,0,3.1472,3.1482,3.1584,3.1563,3.1565,3.1565,3.1573,3.162,3.1647,3.1607,3.1607,3.1616,3.1675,3.1693,3.1699,3.1772,3.1721,3.1725,3.1727,3.1729,3.1894,3.1896,0,0,0,0,0,0,3.1465,3.1478,3.1581,3.1586,3.1516,3.1569,3.1578,3.1602,3.1646,3.1652,3.1617,3.1615,3.1686,3.1694,3.1702,3.1772,3.1725,3.1729,3.1732,3.1893,3.1895,3.1897,0,0,0,0,0,0,3.1462,3.1474,3.1578,3.1532,3.1545,3.1573,3.1601,3.1605,3.1623,3.1654,3.1659,3.1631,3.1686,3.1696,3.1749,3.1775,3.1731,3.1735,3.1891,3.1893,3.1896,3.1913,0,0,0,0,0,0,3.1458,3.1473,3.1494,3.1533,3.1548,3.1624,3.1602,3.1607,3.1631,3.1629,3.1668,3.1673,3.1685,3.1742,3.1753,3.178,3.1739,3.1888,3.1892,3.1895,3.1911,3.1916,3.1921,0,0,0,0,0,3.1453,3.1496,3.1495,3.1508,3.1575,3.1625,3.1634,3.1647,3.1633,3.1655,3.1675,3.1672,3.1771,3.1748,3.176,3.1789,3.1887,3.1891,3.1895,3.1908,3.1915,3.1921,0,0,0,0,0,0,3.1459,3.1501,3.1501,3.1557,3.1588,3.1625,3.1653,3.1654,3.1688,3.1686,3.1701,3.1709,3.1763,3.1781,3.1755,3.1847,3.1827,3.1834,3.1833,3.184,3.1845,3.1839,3.1742,0,0,0,0,0,3.1467,3.1504,3.1539,3.1586,3.1601,3.1625,3.1647,3.1654,3.1686,3.1699,3.1723,3.1755,3.1793,3.1818,3.1854,3.1914,3.1923,3.194,3.1945,3.1949,3.1954,3.1989,3.1997,3.191,3.191,3.191,0,0,3.1484,3.1511,3.1534,3.1588,3.1612,3.1651,3.1635,3.1676,3.1705,3.1705,3.1757,3.1777,3.1813,3.187,3.1896,3.1887,3.1981,3.1954,3.1957,3.196,3.1994,3.2002,3.2009,3.1912,3.1912,3.1912,0,0,3.1534,3.1558,3.1601,3.1626,3.1664,3.168,3.169,3.1728,3.174,3.1793,3.1795,3.183,3.1895,3.1921,3.1943,3.2006,3.2005,3.2018,3.2045,3.2079,3.2086,3.2092,3.2115,3.2123,3.2023,3.2024,3.2024,0,3.155,3.1608,3.1622,3.1664,3.1688,3.1692,3.1735,3.1759,3.1807,3.1824,3.1813,3.1896,3.192,3.1984,3.2,3.2018,3.203,3.2013,3.2083,3.209,3.2096,3.2118,3.2127,3.2025,3.2025,3.2025,3.2024,0,3.1626,3.1667,3.1696,3.1743,3.1771,3.1813,3.1835,3.1861,3.1867,3.1885,3.1939,3.1969,3.2013,3.2029,3.2035,3.2095,3.2088,3.208,3.206,3.2105,3.2126,3.2135,3.2027,3.2026,3.2026,3.2026,0,0,3.168,3.1736,3.1747,3.1769,3.1812,3.1844,3.1887,3.1931,3.1954,3.1987,3.2024,3.2081,3.2075,3.21,3.2109,3.2139,3.2188,3.2128,3.2129,3.2138,3.2257,3.2262,3.2272,3.2188,3.219,3.2191,3.2254,0,3.1735,3.1812,3.1827,3.1894,3.1932,3.1937,3.1975,3.2007,3.2025,3.206,3.208,3.212,3.2109,3.2124,3.2154,3.2176,3.2212,3.2172,3.2223,3.2225,3.2214,3.2283,3.2288,3.2346,3.2263,3.2264,3.2265,0,3.1808,3.1845,3.1916,3.1956,3.1972,3.2006,3.2048,3.2082,3.2118,3.213,3.2159,3.2166,3.2212,3.2191,3.2256,3.2228,3.225,3.2265,3.2267,3.2272,3.2247,3.2289,3.2364,3.2373,3.2278,3.2277,3.2276,0,3.1841,3.1908,3.1959,3.1978,3.2026,3.205,3.2071,3.2106,3.2132,3.2169,3.2186,3.2228,3.2251,3.2284,3.2302,3.2285,3.2366,3.2346,3.2377,3.2377,3.2393,3.2392,3.2472,3.2408,3.2408,3.2408,3.2408,0,3.19,3.1943,3.1975,3.2006,3.2056,3.2074,3.2122,3.2143,3.2175,3.2211,3.2218,3.2253,3.2275,3.2313,3.2328,3.238,3.239,3.2401,3.2404,3.24,3.2399,3.2414,3.2411,3.241,3.241,3.2409,3.2409,0,3.1944,3.1967,3.2023,3.2065,3.2077,3.2111,3.2147,3.2178,3.2198,3.2244,3.2256,3.2286,3.2331,3.2353,3.2409,3.2419,3.2478,3.2479,3.2466,3.2467,3.2497,3.2494,3.259,3.2604,3.2531,3.2532,3.2532,0,3.198,3.2014,3.2059,3.2084,3.2106,3.2147,3.2173,3.2194,3.2221,3.2267,3.2293,3.2339,3.2376,3.2448,3.2475,3.2519,3.252,3.2551,3.2527,3.2522,3.2521,3.2519,3.2523,3.2555,3.2556,3.2557,3.2557,0,3.2042,3.2052,3.209,3.2133,3.2165,3.22,3.2234,3.2255,3.2281,3.2312,3.2358,3.2387,3.2446,3.2491,3.2537,3.2559,3.2563,3.2565,3.2574,3.257,3.2561,3.2567,3.2477,3.2562,3.2562,3.2561,3.2561,3.2561,3.2083,3.2113,3.2151,3.2194,3.2222,3.2255,3.2287,3.2311,3.235,3.2399,3.2409,3.2458,3.2496,3.2558,3.2582,3.2622,3.2615,3.2629,3.2632,3.2635,3.2637,3.2556,3.2631,3.263,3.263,3.263,3.263,0,3.2145,3.217,3.2209,3.2258,3.2292,3.2293,3.2332,3.2361,3.2404,3.2439,3.2477,3.2531,3.2576,3.2608,3.2654,3.268,3.2683,3.2691,3.2689,3.2695,3.264,3.2627,3.2688,3.2688,3.2688,3.2688,3.2688,3.2688,3.2181,3.2233,3.2248,3.2316,3.234,3.2389,3.2411,3.2442,3.247,3.2531,3.2568,3.2589,3.2623,3.2672,3.2714,3.2722,3.2739,3.2748,3.2756,3.2704,3.2698,3.2692,3.268,3.2751,3.2751,3.2807,3.2807,3.2808]},{"header":{"parameterUnit":"m.s-1","parameterCategory":1,"la1":30.2991,"la2":30.254,"lo1":-89.0895,"lo2":-89.0444,"dy":0.0017,"dx":0.0017,"nx":28,"ny":28,"refTime":"2026-01-31T03:00:00:Z","depth":0,"parameterNumber":3,"parameterNumberName":"V-component_of_WINDS"},"data":[0,0,0,0,0,0,0,0,0,0,0,0,0,0,0,0,0,0,0,0,0,0,0,0,0,0,0,0,0,0,0,0,0,0,0,0,0,0,0,0,0,0,0,0,0,0,0,0,0,0,0,0,0,0,0,0,0,0,-8.285,-8.2852,0,-8.3043,-8.3046,-8.3048,-8.2995,-8.2991,-8.2987,-8.2983,-8.3175,-8.3183,-8.3192,0,0,0,0,0,0,0,0,0,0,0,0,0,-8.2429,-8.2437,-8.285,-8.2852,-8.2855,-8.3043,-8.3046,-8.3048,-8.2996,-8.2991,-8.2986,-8.2982,-8.3172,-8.3182,-8.3193,0,0,0,0,0,0,0,0,0,0,0,0,0,-8.2616,-8.244,-8.2849,-8.2851,-8.2853,-8.3042,-8.3046,-8.3049,-8.2997,-8.2991,-8.2985,-8.2979,-8.3168,-8.3181,-8.3194,-8.3391,0,0,-8.3234,-8.324,0,0,0,0,0,0,0,0,-8.2605,-8.2631,-8.2848,-8.2851,-8.2854,-8.2989,-8.2967,-8.3163,-8.2998,-8.2942,-8.2983,-8.2977,-8.3117,-8.3134,-8.3183,-8.34,-8.3408,-8.3235,-8.3243,-8.3249,-8.3252,0,0,0,0,0,0,0,-8.2593,-8.2623,-8.2926,-8.2852,-8.2855,-8.2841,-8.2861,-8.3004,-8.306,-8.2946,-8.2943,-8.2967,-8.3118,-8.3171,-8.3187,-8.3411,-8.3235,-8.3246,-8.3254,-8.3259,-8.38,-8.3807,0,0,0,0,0,0,-8.2578,-8.2612,-8.292,-8.2932,-8.2713,-8.2853,-8.2875,-8.2952,-8.3058,-8.3069,-8.2972,-8.2964,-8.3151,-8.3172,-8.3194,-8.3432,-8.3248,-8.3261,-8.3268,-8.3794,-8.3802,-8.3809,0,0,0,0,0,0,-8.257,-8.2606,-8.2912,-8.2771,-8.2809,-8.2866,-8.2952,-8.2958,-8.3011,-8.3077,-8.3086,-8.3016,-8.3147,-8.3175,-8.3343,-8.3438,-8.3267,-8.3278,-8.3786,-8.3796,-8.3805,-8.3911,0,0,0,0,0,0,-8.2558,-8.2603,-8.268,-8.2774,-8.2817,-8.3061,-8.2958,-8.2966,-8.3035,-8.3026,-8.3121,-8.3131,-8.3145,-8.3324,-8.3356,-8.3453,-8.3289,-8.3778,-8.3791,-8.3802,-8.3899,-8.3923,-8.3944,0,0,0,0,0,-8.2543,-8.27,-8.2684,-8.2722,-8.2914,-8.3066,-8.3091,-8.3105,-8.3043,-8.312,-8.3162,-8.3128,-8.3423,-8.3342,-8.3377,-8.348,-8.3772,-8.3787,-8.3801,-8.3889,-8.3919,-8.3943,0,0,0,0,0,0,-8.2614,-8.2712,-8.2696,-8.2889,-8.297,-8.3057,-8.3154,-8.3135,-8.3234,-8.3221,-8.3233,-8.3255,-8.3427,-8.347,-8.3378,-8.3676,-8.3588,-8.361,-8.3643,-8.3671,-8.3693,-8.3679,-8.33,0,0,0,0,0,-8.2652,-8.2769,-8.2848,-8.301,-8.3052,-8.3097,-8.3163,-8.3168,-8.3251,-8.3284,-8.3339,-8.3419,-8.353,-8.3603,-8.3708,-8.3905,-8.3925,-8.3993,-8.4015,-8.4033,-8.4053,-8.4161,-8.4192,-8.3857,-8.3857,-8.3857,0,0,-8.2732,-8.28,-8.2873,-8.3027,-8.309,-8.3209,-8.3126,-8.3255,-8.3343,-8.3303,-8.3466,-8.3509,-8.36,-8.3784,-8.3867,-8.3825,-8.415,-8.4052,-8.4066,-8.4076,-8.4179,-8.4211,-8.4239,-8.3867,-8.3865,-8.3864,0,0,-8.2939,-8.3002,-8.3145,-8.3212,-8.331,-8.3338,-8.3373,-8.3464,-8.3492,-8.3656,-8.3629,-8.3733,-8.3923,-8.399,-8.4048,-8.4282,-8.4255,-8.4316,-8.4432,-8.4537,-8.4564,-8.4587,-8.4671,-8.4701,-8.4335,-8.4335,-8.4335,0,-8.3025,-8.3206,-8.3221,-8.3354,-8.3422,-8.3394,-8.3539,-8.3601,-8.3728,-8.3775,-8.3726,-8.3966,-8.4024,-8.4224,-8.4281,-8.4329,-8.4368,-8.4305,-8.4559,-8.4583,-8.4605,-8.4685,-8.4717,-8.4342,-8.4341,-8.434,-8.434,0,-8.3308,-8.3433,-8.3537,-8.3663,-8.3743,-8.3881,-8.3916,-8.3994,-8.3992,-8.4026,-8.4193,-8.4263,-8.4383,-8.4431,-8.4428,-8.4631,-8.4601,-8.4556,-8.4467,-8.4643,-8.4719,-8.475,-8.4352,-8.4349,-8.4347,-8.4346,0,0,-8.3563,-8.3698,-8.3736,-8.3794,-8.3901,-8.3997,-8.4134,-8.4254,-8.4321,-8.4409,-8.4524,-8.4687,-8.4646,-8.4713,-8.4718,-8.481,-8.4992,-8.4753,-8.4756,-8.4796,-8.522,-8.5254,-8.529,-8.4975,-8.4981,-8.4986,-8.5213,0,-8.378,-8.4024,-8.4042,-8.426,-8.4377,-8.4353,-8.4472,-8.4549,-8.4585,-8.4687,-8.4724,-8.4841,-8.4778,-8.4818,-8.4908,-8.4951,-8.5078,-8.4935,-8.508,-8.5086,-8.506,-8.5329,-8.5366,-8.5577,-8.5242,-8.5247,-8.5251,0,-8.4066,-8.4166,-8.4398,-8.449,-8.4539,-8.4646,-8.4759,-8.4857,-8.4945,-8.4964,-8.504,-8.5032,-8.5171,-8.5078,-8.5269,-8.5171,-8.5232,-8.5262,-8.527,-8.5285,-8.5179,-8.5351,-8.5644,-8.5676,-8.5298,-8.5294,-8.5291,0,-8.423,-8.4423,-8.4587,-8.4637,-8.4748,-8.4824,-8.4874,-8.4956,-8.5027,-8.5124,-8.5171,-8.5282,-8.5343,-8.5428,-8.545,-8.538,-8.5641,-8.5549,-8.566,-8.566,-8.5716,-8.5713,-8.6024,-8.5755,-8.5754,-8.5754,-8.5753,0,-8.4471,-8.4614,-8.4663,-8.4764,-8.4923,-8.4942,-8.5098,-8.5142,-8.5216,-8.5324,-8.5308,-8.5409,-8.5432,-8.5538,-8.5556,-8.5712,-8.5739,-8.5757,-8.576,-8.5759,-8.5757,-8.5799,-8.5785,-8.5762,-8.576,-8.5759,-8.5757,0,-8.4682,-8.4721,-8.4898,-8.499,-8.5017,-8.513,-8.5208,-8.5304,-8.5337,-8.5474,-8.5507,-8.556,-8.5683,-8.5714,-8.586,-8.5872,-8.6057,-8.6046,-8.6029,-8.6028,-8.6138,-8.6127,-8.6487,-8.6535,-8.6234,-8.6237,-8.6239,0,-8.4833,-8.4943,-8.5048,-8.5121,-8.5175,-8.5291,-8.5365,-8.5387,-8.5464,-8.5574,-8.5657,-8.5779,-8.5878,-8.6076,-8.6125,-8.6237,-8.6229,-8.6347,-8.6245,-8.6241,-8.6232,-8.6225,-8.6236,-8.6367,-8.637,-8.6372,-8.6375,0,-8.5098,-8.5113,-8.5221,-8.5337,-8.5426,-8.5518,-8.5605,-8.5665,-8.5699,-8.5786,-8.5914,-8.5992,-8.6143,-8.6264,-8.6377,-8.6426,-8.6407,-8.6407,-8.6438,-8.6438,-8.6424,-8.6434,-8.6082,-8.6398,-8.6396,-8.6394,-8.6393,-8.6392,-8.5285,-8.5382,-8.5472,-8.5593,-8.5662,-8.5744,-8.584,-8.5887,-8.5995,-8.6122,-8.6128,-8.6267,-8.6351,-8.6502,-8.6558,-8.6665,-8.6629,-8.6675,-8.6686,-8.6697,-8.6708,-8.6407,-8.6686,-8.6685,-8.6684,-8.6684,-8.6683,0,-8.5549,-8.5607,-8.5718,-8.5843,-8.5939,-8.5915,-8.601,-8.6091,-8.6215,-8.6297,-8.6396,-8.6543,-8.6661,-8.6721,-8.6837,-8.6912,-8.6906,-8.6942,-8.6937,-8.6949,-8.6733,-8.6694,-8.6945,-8.6945,-8.6945,-8.6945,-8.6945,-8.6945,-8.5698,-8.5862,-8.5887,-8.6085,-8.614,-8.6278,-8.6335,-8.6411,-8.6477,-8.6643,-8.6742,-8.6782,-8.6855,-8.6977,-8.7084,-8.7098,-8.7142,-8.7183,-8.7193,-8.699,-8.6963,-8.6938,-8.6902,-8.7192,-8.7192,-8.7399,-8.7401,-8.7403]}]]